When you browse on this site, cookies collect data to enhance your experience and personalize the content and advertising you see.
Visit our Privacy Policy to learn more. By continuing to use the site, you agree to this use of cookies and data.
  • In Austria
  • List of Countries
  • For 7 days
  • Water Temperature
  • Weather Map
  • News
  • Weather Widgets
  • user-avatar
    Login

    Hourly Weather Tepepa

    Today, 23 February, Sunday

    Time Temperature Precipitation Wind Pressure Humidity
    00:00 +11°C° 0 mm 1 mps 586 mmHg 81%
    01:00 +10°C° 0 mm 1 mps 586 mmHg 79%
    02:00 +10°C° 0 mm 1 mps 585 mmHg 78%
    03:00 +10°C° 0 mm 1 mps 585 mmHg 76%
    04:00 +11°C° 0 mm 1 mps 585 mmHg 75%
    05:00 +11°C° 0 mm 1 mps 585 mmHg 73%
    06:00 +13°C° 0 mm 1 mps 587 mmHg 66%
    07:00 +16°C° 0 mm 1 mps 588 mmHg 59%
    08:00 +19°C° 0 mm 1 mps 589 mmHg 51%
    09:00 +21°C° 0 mm 1 mps 590 mmHg 47%
    10:00 +22°C° 0 mm 1 mps 590 mmHg 43%
    11:00 +24°C° 0 mm 2 mps 590 mmHg 39%
    12:00 +24°C° 0 mm 2 mps 589 mmHg 40%
    13:00 +24°C° 0 mm 3 mps 588 mmHg 42%
    14:00 +24°C° 0 mm 3 mps 588 mmHg 43%
    15:00 +21°C° 0 mm 2 mps 587 mmHg 50%
    16:00 +20°C° 0 mm 2 mps 586 mmHg 57%
    17:00 +19°C° 0 mm 1 mps 585 mmHg 64%
    18:00 +18°C° 0 mm 1 mps 585 mmHg 60%
    19:00 +16°C° 0 mm 1 mps 585 mmHg 57%
    20:00 +15°C° 0 mm 1 mps 585 mmHg 53%
    21:00 +15°C° 0 mm 2 mps 585 mmHg 50%
    22:00 +15°C° 0 mm 2 mps 585 mmHg 47%
    23:00 +15°C° 0 mm 2 mps 585 mmHg 44%

    Tomorrow, 24 February, Monday

    Time Temperature Precipitation Wind Pressure Humidity
    00:00 +14°C° 0 mm 2 mps 584 mmHg 46%
    01:00 +14°C° 0 mm 2 mps 584 mmHg 47%
    02:00 +14°C° 0 mm 2 mps 583 mmHg 49%
    03:00 +14°C° 0 mm 2 mps 583 mmHg 52%
    04:00 +14°C° 0 mm 2 mps 583 mmHg 54%
    05:00 +14°C° 0 mm 2 mps 583 mmHg 57%
    06:00 +16°C° 0 mm 2 mps 584 mmHg 53%
    07:00 +18°C° 0 mm 2 mps 586 mmHg 50%
    08:00 +21°C° 0 mm 1 mps 587 mmHg 46%
    09:00 +23°C° 0 mm 1 mps 587 mmHg 42%
    10:00 +24°C° 0 mm 2 mps 588 mmHg 37%
    11:00 +26°C° 0 mm 2 mps 588 mmHg 32%
    12:00 +26°C° 0 mm 2 mps 587 mmHg 33%
    13:00 +26°C° 0 mm 2 mps 586 mmHg 34%
    14:00 +26°C° 0 mm 2 mps 586 mmHg 35%
    15:00 +24°C° 0 mm 2 mps 585 mmHg 44%
    16:00 +21°C° 0 mm 2 mps 584 mmHg 52%
    17:00 +19°C° 0 mm 2 mps 583 mmHg 61%
    18:00 +18°C° 0 mm 1 mps 583 mmHg 63%
    19:00 +16°C° 0 mm 1 mps 583 mmHg 66%
    20:00 +14°C° 0 mm 1 mps 583 mmHg 68%
    21:00 +14°C° 0 mm 1 mps 583 mmHg 71%
    22:00 +13°C° 0 mm 1 mps 583 mmHg 74%
    23:00 +12°C° 0 mm 0 mps 583 mmHg 77%

    Day after tomorrow, 25 February, Tuesday

    Time Temperature Precipitation Wind Pressure Humidity
    00:00 +11°C° 0 mm 0 mps 582 mmHg 79%
    01:00 +11°C° 0 mm 0 mps 582 mmHg 82%
    02:00 +11°C° 0 mm 0 mps 582 mmHg 85%
    03:00 +10°C° 0 mm 0 mps 582 mmHg 86%
    04:00 +10°C° 0 mm 0 mps 581 mmHg 87%
    05:00 +9°C° 0 mm 0 mps 581 mmHg 88%
    06:00 +11°C° 0 mm 0 mps 583 mmHg 81%
    07:00 +14°C° 0 mm 1 mps 584 mmHg 73%
    08:00 +16°C° 0 mm 1 mps 585 mmHg 66%
    09:00 +18°C° 0 mm 1 mps 585 mmHg 62%
    10:00 +18°C° 0 mm 2 mps 586 mmHg 58%
    11:00 +20°C° 0 mm 3 mps 586 mmHg 54%
    12:00 +18°C° 0 mm 2 mps 585 mmHg 60%
    13:00 +17°C° 0 mm 2 mps 584 mmHg 67%
    14:00 +16°C° 0 mm 2 mps 582 mmHg 73%
    15:00 +15°C° 0 mm 2 mps 582 mmHg 79%
    16:00 +14°C° 0 mm 2 mps 582 mmHg 84%
    17:00 +13°C° 0 mm 2 mps 582 mmHg 89%
    18:00 +13°C° 0.1 mm 2 mps 582 mmHg 91%
    19:00 +13°C° 0.1 mm 1 mps 583 mmHg 92%
    20:00 +12°C° 0.1 mm 1 mps 584 mmHg 94%
    21:00 +12°C° 0.1 mm 1 mps 584 mmHg 94%
    22:00 +12°C° 0.1 mm 1 mps 584 mmHg 95%
    23:00 +12°C° 0.1 mm 1 mps 584 mmHg 95%

    26 February, Wednesday

    Time Temperature Precipitation Wind Pressure Humidity
    00:00 +11°C° 0.1 mm 1 mps 584 mmHg 94%
    01:00 +11°C° 0.1 mm 1 mps 584 mmHg 93%
    02:00 +10°C° 0.1 mm 1 mps 584 mmHg 92%
    03:00 +10°C° 0 mm 1 mps 584 mmHg 87%
    04:00 +8°C° 0 mm 2 mps 584 mmHg 82%
    05:00 +7°C° 0 mm 2 mps 584 mmHg 78%
    06:00 +8°C° 0.5 mm 2 mps 585 mmHg 83%
    07:00 +8°C° 0.5 mm 2 mps 586 mmHg 88%
    08:00 +8°C° 0.5 mm 3 mps 587 mmHg 93%
    09:00 +8°C° 0.6 mm 3 mps 587 mmHg 93%
    10:00 +7°C° 0.6 mm 3 mps 587 mmHg 94%
    11:00 +5°C° 0.6 mm 3 mps 586 mmHg 94%
    12:00 +5°C° 0.2 mm 3 mps 586 mmHg 94%
    13:00 +5°C° 0.2 mm 3 mps 585 mmHg 93%
    14:00 +4°C° 0.2 mm 3 mps 585 mmHg 93%
    15:00 +4°C° 0.1 mm 3 mps 585 mmHg 94%
    16:00 +3°C° 0.1 mm 3 mps 585 mmHg 94%
    17:00 +4°C° 0.1 mm 2 mps 585 mmHg 95%
    18:00 +3°C° 0.1 mm 2 mps 585 mmHg 96%
    19:00 +3°C° 0.1 mm 2 mps 585 mmHg 96%
    20:00 +3°C° 0.1 mm 2 mps 586 mmHg 96%
    21:00 +3°C° 0 mm 2 mps 586 mmHg 96%
    22:00 +4°C° 0 mm 1 mps 586 mmHg 95%
    23:00 +4°C° 0 mm 1 mps 586 mmHg 95%

    27 February, Thursday

    Time Temperature Precipitation Wind Pressure Humidity
    00:00 +4°C° 0 mm 1 mps 585 mmHg 95%
    01:00 +4°C° 0 mm 1 mps 585 mmHg 95%
    02:00 +5°C° 0 mm 1 mps 585 mmHg 95%
    03:00 +5°C° 0 mm 1 mps 585 mmHg 95%
    04:00 +5°C° 0 mm 1 mps 585 mmHg 95%
    05:00 +5°C° 0 mm 1 mps 585 mmHg 95%
    06:00 +6°C° 0 mm 1 mps 586 mmHg 91%
    07:00 +7°C° 0 mm 1 mps 586 mmHg 87%
    08:00 +8°C° 0 mm 1 mps 587 mmHg 83%
    09:00 +10°C° 0 mm 1 mps 587 mmHg 78%
    10:00 +10°C° 0 mm 2 mps 588 mmHg 72%
    11:00 +13°C° 0 mm 2 mps 588 mmHg 67%
    12:00 +13°C° 0 mm 2 mps 588 mmHg 68%
    13:00 +13°C° 0 mm 2 mps 587 mmHg 68%
    14:00 +13°C° 0 mm 2 mps 586 mmHg 69%
    15:00 +12°C° 0 mm 2 mps 586 mmHg 73%
    16:00 +11°C° 0 mm 1 mps 585 mmHg 76%
    17:00 +10°C° 0 mm 1 mps 585 mmHg 80%
    18:00 +10°C° 0 mm 1 mps 585 mmHg 81%
    19:00 +10°C° 0 mm 1 mps 586 mmHg 83%
    20:00 +8°C° 0 mm 0 mps 586 mmHg 84%
    21:00 +8°C° 0 mm 0 mps 586 mmHg 83%
    22:00 +8°C° 0 mm 0 mps 587 mmHg 82%
    23:00 +8°C° 0 mm 0 mps 587 mmHg 81%

    28 February, Friday

    Time Temperature Precipitation Wind Pressure Humidity
    00:00 +8°C° 0 mm 0 mps 586 mmHg 81%
    01:00 +8°C° 0 mm 0 mps 586 mmHg 81%
    02:00 +8°C° 0 mm 0 mps 586 mmHg 81%
    03:00 +7°C° 0 mm 0 mps 586 mmHg 82%
    04:00 +7°C° 0 mm 0 mps 586 mmHg 83%
    05:00 +6°C° 0 mm 0 mps 585 mmHg 84%
    06:00 +8°C° 0 mm 0 mps 586 mmHg 79%
    07:00 +10°C° 0 mm 1 mps 588 mmHg 73%
    08:00 +11°C° 0 mm 1 mps 589 mmHg 68%
    09:00 +13°C° 0 mm 2 mps 589 mmHg 65%
    10:00 +14°C° 0 mm 2 mps 589 mmHg 63%
    11:00 +14°C° 0 mm 3 mps 590 mmHg 61%
    12:00 +13°C° 0 mm 3 mps 589 mmHg 64%
    13:00 +13°C° 0 mm 3 mps 588 mmHg 67%
    14:00 +12°C° 0 mm 3 mps 587 mmHg 71%
    15:00 +12°C° 0 mm 2 mps 587 mmHg 77%
    16:00 +10°C° 0 mm 2 mps 586 mmHg 84%
    17:00 +8°C° 0 mm 2 mps 586 mmHg 91%
    18:00 +8°C° 0 mm 2 mps 586 mmHg 92%
    19:00 +8°C° 0 mm 1 mps 587 mmHg 93%
    20:00 +8°C° 0 mm 1 mps 587 mmHg 94%
    21:00 +8°C° 0 mm 1 mps 588 mmHg 93%
    22:00 +8°C° 0 mm 1 mps 588 mmHg 93%
    23:00 +8°C° 0 mm 1 mps 588 mmHg 92%
    Show more